UAL253 KIAH-PHNL

Flight info

Callsign UAL253
Flight time N/A
Altitude 32000
Route STYCK8 DOLEY DCT FUZ DCT SPS J58 PNH DCT CIM DCT DVC DCT ILC/N0491F340 J198 KROST DCT BEBOP R464 BILLO/N0483F360 R464 BITTA INOYI1
Aircraft B772/H-SDE2E3FGHIJ5LORVWXY/LB1D1

Departure

Time 2026-05-04 15:51
Airport George Bush Intercontinental Airport (KIAH)

Arrival

Time N/A
Airport Daniel K. Inouye International Airport (PHNL)
Time Latitude Longitude Altitude Speed Heading
2026-05-04 15:16 29.98993 -95.34116 111 ft 0 kts 270°
2026-05-04 15:39 29.98993 -95.34114 111 ft 2 kts 269°
2026-05-04 15:40 29.98994 -95.34095 110 ft 2 kts 268°
2026-05-04 15:40 29.98994 -95.34076 110 ft 2 kts 269°
2026-05-04 15:40 29.98994 -95.34057 111 ft 2 kts 281°
2026-05-04 15:40 29.98989 -95.34039 108 ft 2 kts 303°
2026-05-04 15:41 29.98978 -95.34024 108 ft 2 kts 330°
2026-05-04 15:41 29.98963 -95.34018 109 ft 2 kts 353°
2026-05-04 15:41 29.98946 -95.34017 109 ft 2 kts 359°
2026-05-04 15:41 29.98933 -95.34017 110 ft 1 kts
2026-05-04 15:43 29.98945 -95.34016 110 ft 5 kts
2026-05-04 15:44 29.98985 -95.34014 107 ft 7 kts
2026-05-04 15:44 29.99032 -95.34013 111 ft 7 kts
2026-05-04 15:44 29.99076 -95.34024 109 ft 7 kts 319°
2026-05-04 15:44 29.99087 -95.34087 108 ft 10 kts 271°
2026-05-04 15:45 29.99087 -95.34184 108 ft 14 kts 269°
2026-05-04 15:45 29.99086 -95.34293 109 ft 14 kts 269°
2026-05-04 15:45 29.99085 -95.34402 109 ft 14 kts 270°
2026-05-04 15:45 29.99085 -95.34511 109 ft 14 kts 270°
2026-05-04 15:46 29.99085 -95.34638 109 ft 18 kts 270°
2026-05-04 15:46 29.99085 -95.34783 109 ft 18 kts 270°
2026-05-04 15:46 29.99088 -95.34927 108 ft 18 kts 272°
2026-05-04 15:46 29.99091 -95.35070 108 ft 18 kts 269°
2026-05-04 15:47 29.99091 -95.35214 108 ft 18 kts 270°
2026-05-04 15:47 29.99091 -95.35357 108 ft 17 kts 270°
2026-05-04 15:47 29.99086 -95.35482 109 ft 15 kts 263°
2026-05-04 15:47 29.99084 -95.35603 109 ft 15 kts 274°
2026-05-04 15:48 29.99094 -95.35725 111 ft 15 kts 275°
2026-05-04 15:48 29.99100 -95.35847 111 ft 15 kts 268°
2026-05-04 15:48 29.99022 -95.36037 109 ft 10 kts 194°
2026-05-04 15:49 29.98958 -95.36015 108 ft 10 kts 152°
2026-05-04 15:49 29.98899 -95.35980 110 ft 9 kts 156°
2026-05-04 15:49 29.98843 -95.35990 111 ft 7 kts 215°
2026-05-04 15:49 29.98816 -95.36036 109 ft 7 kts 241°
2026-05-04 15:50 29.98793 -95.36085 110 ft 7 kts 241°
2026-05-04 15:50 29.98767 -95.36119 111 ft 4 kts 204°
2026-05-04 15:50 29.98748 -95.36117 110 ft 3 kts 168°
2026-05-04 15:50 29.98704 -95.36093 111 ft 17 kts 153°
2026-05-04 15:51 29.98436 -95.35929 108 ft 79 kts 152°
2026-05-04 15:51 29.97742 -95.35506 110 ft 145 kts 152°
2026-05-04 15:51 29.96704 -95.34870 357 ft 180 kts 153°
2026-05-04 15:51 29.95627 -95.34224 1407 ft 167 kts 154°
2026-05-04 15:52 29.94546 -95.33587 2047 ft 185 kts 155°
2026-05-04 15:52 29.93321 -95.32874 2210 ft 210 kts 156°
2026-05-04 15:52 29.91958 -95.32081 2490 ft 228 kts 155°
2026-05-04 15:52 29.90689 -95.30951 2741 ft 246 kts 127°
2026-05-04 15:53 29.90130 -95.29045 3253 ft 259 kts 97°
2026-05-04 15:53 29.90085 -95.26922 3817 ft 269 kts 94°
2026-05-04 15:53 29.90052 -95.24760 4564 ft 268 kts 94°
2026-05-04 15:53 29.90013 -95.22609 5335 ft 267 kts 96°
2026-05-04 15:54 29.89541 -95.20547 5833 ft 270 kts 123°
2026-05-04 15:54 29.88284 -95.18949 6366 ft 272 kts 150°
2026-05-04 15:54 29.86520 -95.18186 6822 ft 274 kts 178°
2026-05-04 15:54 29.84633 -95.18440 7273 ft 275 kts 205°
2026-05-04 15:55 29.83045 -95.19642 7782 ft 274 kts 227°
2026-05-04 15:55 29.81737 -95.21257 8314 ft 278 kts 231°
2026-05-04 15:55 29.80557 -95.22977 8811 ft 277 kts 247°
2026-05-04 15:55 29.80202 -95.25111 9331 ft 274 kts 280°
2026-05-04 15:56 29.80957 -95.27084 9968 ft 272 kts 312°
2026-05-04 15:56 29.82463 -95.28423 10380 ft 279 kts 327°
2026-05-04 15:56 29.84253 -95.29505 10494 ft 301 kts 334°
2026-05-04 15:56 29.86273 -95.30423 10662 ft 322 kts 338°
2026-05-04 15:57 29.88451 -95.31327 10821 ft 343 kts 338°
2026-05-04 15:57 29.90749 -95.32274 11154 ft 357 kts 338°
2026-05-04 15:57 29.93074 -95.33246 11748 ft 363 kts 338°
2026-05-04 15:57 29.95462 -95.34259 12437 ft 367 kts 337°
2026-05-04 15:58 29.97871 -95.35295 13194 ft 370 kts 336°
2026-05-04 15:58 30.00295 -95.36345 13928 ft 373 kts 336°
2026-05-04 15:58 30.02735 -95.37406 14578 ft 375 kts 336°
2026-05-04 15:58 30.05189 -95.38474 15217 ft 378 kts 336°
2026-05-04 15:59 30.07667 -95.39552 15825 ft 381 kts 335°
2026-05-04 15:59 30.10142 -95.40685 16435 ft 383 kts 332°
2026-05-04 15:59 30.12553 -95.42020 17020 ft 385 kts 330°
2026-05-04 15:59 30.14966 -95.43392 17582 ft 388 kts 330°
2026-05-04 16:00 30.17372 -95.44760 18158 ft 391 kts 330°
2026-05-04 16:00 30.19829 -95.46152 18679 ft 394 kts 330°
2026-05-04 16:00 30.22299 -95.47545 19213 ft 395 kts 330°
2026-05-04 16:00 30.24772 -95.48938 19772 ft 396 kts 330°
2026-05-04 16:01 30.27256 -95.50338 20278 ft 397 kts 330°
2026-05-04 16:01 30.29755 -95.51748 20764 ft 400 kts 329°
2026-05-04 16:01 30.32262 -95.53162 21228 ft 402 kts 329°
2026-05-04 16:01 30.34751 -95.54568 21703 ft 404 kts 329°
2026-05-04 16:02 30.37289 -95.56003 22177 ft 406 kts 329°
2026-05-04 16:02 30.39834 -95.57441 22635 ft 408 kts 329°
2026-05-04 16:02 30.44956 -95.60339 23591 ft 411 kts 329°
2026-05-04 16:03 30.47528 -95.61796 23981 ft 412 kts 329°
2026-05-04 16:03 30.50108 -95.63258 24420 ft 412 kts 329°
2026-05-04 16:03 30.52687 -95.64719 24853 ft 412 kts 329°
2026-05-04 16:03 30.55280 -95.66167 25281 ft 413 kts 329°
2026-05-04 16:04 30.57890 -95.67570 25674 ft 414 kts 330°
2026-05-04 16:04 30.63142 -95.70348 26415 ft 416 kts 330°
2026-05-04 16:04 30.65750 -95.71731 26777 ft 416 kts 330°
2026-05-04 16:05 30.68388 -95.73134 27146 ft 417 kts 329°
2026-05-04 16:05 30.71023 -95.74540 27495 ft 417 kts 329°
2026-05-04 16:05 30.76309 -95.77369 28110 ft 419 kts 329°
2026-05-04 16:06 30.78958 -95.78790 28403 ft 420 kts 329°
2026-05-04 16:06 30.86041 -95.82592 29119 ft 422 kts 329°
2026-05-04 16:07 30.89617 -95.84513 29425 ft 423 kts 329°
2026-05-04 16:07 30.97655 -95.88838 30062 ft 425 kts 329°
2026-05-04 16:08 31.00302 -95.90264 30294 ft 424 kts 329°
2026-05-04 16:08 31.08321 -95.94590 30868 ft 423 kts 328°
2026-05-04 16:09 31.13717 -95.97343 31256 ft 426 kts 333°
2026-05-04 16:09 31.19368 -95.99519 31593 ft 427 kts 334°
2026-05-04 16:10 31.25008 -96.01683 31934 ft 426 kts 334°
2026-05-04 16:11 31.36249 -96.06042 32043 ft 426 kts 334°
2026-05-04 16:12 31.53098 -96.12610 32044 ft 425 kts 334°
2026-05-04 16:13 31.64322 -96.16998 32042 ft 425 kts 334°
2026-05-04 16:14 31.75517 -96.21386 32037 ft 425 kts 334°
2026-05-04 16:16 31.88617 -96.26536 32039 ft 426 kts 334°
2026-05-04 16:17 32.02682 -96.32082 32042 ft 427 kts 334°
2026-05-04 16:18 32.13972 -96.36567 32041 ft 427 kts 332°
2026-05-04 16:19 32.21529 -96.41680 32023 ft 416 kts 319°
2026-05-04 16:19 32.25843 -96.46176 32019 ft 413 kts 313°
2026-05-04 16:20 32.36184 -96.57933 32003 ft 414 kts 313°
2026-05-04 16:22 32.46610 -96.69714 32001 ft 414 kts 313°
2026-05-04 16:23 32.59095 -96.83868 31997 ft 415 kts 313°
2026-05-04 16:25 32.71617 -96.98124 31996 ft 416 kts 313°
2026-05-04 16:26 32.86219 -97.14823 31962 ft 417 kts 313°
2026-05-04 16:28 32.96339 -97.27209 31965 ft 417 kts 310°
2026-05-04 16:29 33.10213 -97.44904 31959 ft 418 kts 310°
2026-05-04 16:31 33.20176 -97.57598 31970 ft 419 kts 310°
2026-05-04 16:32 33.32120 -97.72879 31951 ft 421 kts 310°
2026-05-04 16:33 33.40114 -97.83144 31940 ft 422 kts 310°
2026-05-04 16:34 33.46116 -97.90872 31919 ft 423 kts 310°
2026-05-04 16:35 33.58101 -98.06349 31893 ft 424 kts 310°
2026-05-04 16:36 33.64117 -98.14144 31880 ft 424 kts 310°
2026-05-04 16:37 33.70136 -98.21961 31891 ft 425 kts 310°
2026-05-04 16:38 33.78142 -98.32386 31906 ft 425 kts 310°
2026-05-04 16:39 33.88192 -98.45516 31915 ft 427 kts 310°
2026-05-04 16:40 33.96199 -98.56038 31901 ft 427 kts 308°
2026-05-04 16:41 34.03783 -98.71315 31873 ft 426 kts 296°
2026-05-04 16:43 34.10422 -98.87285 31824 ft 427 kts 296°
2026-05-04 16:43 34.14429 -98.96902 31822 ft 427 kts 296°
2026-05-04 16:45 34.22415 -99.16150 31825 ft 428 kts 296°
2026-05-04 16:46 34.29061 -99.32254 31797 ft 428 kts 296°
2026-05-04 16:47 34.34350 -99.45124 31776 ft 428 kts 296°
2026-05-04 16:48 34.39653 -99.58076 31776 ft 429 kts 296°
2026-05-04 16:49 34.44921 -99.70996 31771 ft 429 kts 296°
2026-05-04 16:50 34.50200 -99.83989 31773 ft 429 kts 296°
2026-05-04 16:51 34.54152 -99.93750 31791 ft 430 kts 295°
2026-05-04 16:52 34.59402 -100.06762 31814 ft 430 kts 295°
2026-05-04 16:53 34.63351 -100.16581 31816 ft 431 kts 295°
2026-05-04 16:54 34.68595 -100.29670 31804 ft 432 kts 295°
2026-05-04 16:55 34.76456 -100.49382 31767 ft 433 kts 295°
2026-05-04 16:56 34.83013 -100.65915 31756 ft 434 kts 295°
2026-05-04 16:57 34.86924 -100.75818 31759 ft 435 kts 295°
2026-05-04 16:58 34.92158 -100.89115 31748 ft 435 kts 295°
2026-05-04 17:00 34.99982 -101.09093 31751 ft 436 kts 294°
2026-05-04 17:01 35.06499 -101.25830 31754 ft 437 kts 294°
2026-05-04 17:02 35.11266 -101.38124 31793 ft 437 kts 294°
2026-05-04 17:03 35.15142 -101.48157 31848 ft 437 kts 294°
2026-05-04 17:03 35.19033 -101.58259 31899 ft 437 kts 294°
2026-05-04 17:04 35.24215 -101.71724 31908 ft 437 kts 295°
2026-05-04 17:05 35.29710 -101.84937 31880 ft 436 kts 295°
2026-05-04 17:06 35.33838 -101.94873 31828 ft 436 kts 295°
2026-05-04 17:07 35.37473 -102.03696 31793 ft 435 kts 295°
2026-05-04 17:07 35.40653 -102.11444 31767 ft 434 kts 295°
2026-05-04 17:08 35.44700 -102.21324 31767 ft 434 kts 295°
2026-05-04 17:09 35.47401 -102.27934 31778 ft 433 kts 295°
2026-05-04 17:09 35.50099 -102.34552 31770 ft 433 kts 294°
2026-05-04 17:10 35.56821 -102.51093 31779 ft 432 kts 294°
2026-05-04 17:11 35.59484 -102.57671 31778 ft 432 kts 294°
2026-05-04 17:12 35.63493 -102.67597 31774 ft 432 kts 294°
2026-05-04 17:13 35.70153 -102.84156 31772 ft 431 kts 294°
2026-05-04 17:14 35.75457 -102.97400 31769 ft 431 kts 294°
2026-05-04 17:15 35.79407 -103.07301 31772 ft 431 kts 294°
2026-05-04 17:16 35.84684 -103.20574 31777 ft 430 kts 293°